When you browse on this site, cookies collect data to enhance your experience and personalize the content and advertising you see.
Visit our Privacy Policy to learn more. By continuing to use the site, you agree to this use of cookies and data.
  • In Sweden
  • List of Countries
  • For 7 days
  • Water Temperature
  • Weather Map
  • Weather Widgets
  • user-avatar
    Login

    Hourly Weather Gaborone

    Today, 2 April, Thursday

    Time Temperature Precipitation Wind Pressure Humidity
    00:00 +22°C° 0 mm 3 mps 679 mmHg 56%
    01:00 +22°C° 0 mm 3 mps 679 mmHg 60%
    02:00 +22°C° 0 mm 4 mps 679 mmHg 65%
    03:00 +21°C° 0.1 mm 4 mps 679 mmHg 70%
    04:00 +21°C° 0.1 mm 3 mps 679 mmHg 75%
    05:00 +20°C° 0.1 mm 3 mps 679 mmHg 79%
    06:00 +20°C° 0 mm 4 mps 680 mmHg 75%
    07:00 +20°C° 0 mm 5 mps 680 mmHg 70%
    08:00 +20°C° 0 mm 5 mps 681 mmHg 66%
    09:00 +22°C° 0 mm 5 mps 681 mmHg 59%
    10:00 +24°C° 0 mm 6 mps 682 mmHg 51%
    11:00 +27°C° 0 mm 6 mps 682 mmHg 44%
    12:00 +28°C° 0 mm 6 mps 682 mmHg 40%
    13:00 +29°C° 0 mm 6 mps 681 mmHg 37%
    14:00 +30°C° 0 mm 5 mps 681 mmHg 33%
    15:00 +29°C° 0 mm 5 mps 680 mmHg 33%
    16:00 +29°C° 0 mm 5 mps 680 mmHg 33%
    17:00 +29°C° 0 mm 5 mps 679 mmHg 33%
    18:00 +27°C° 0 mm 4 mps 679 mmHg 39%
    19:00 +25°C° 0 mm 4 mps 679 mmHg 46%
    20:00 +22°C° 0 mm 3 mps 679 mmHg 52%
    21:00 +22°C° 0 mm 3 mps 679 mmHg 55%
    22:00 +21°C° 0 mm 3 mps 679 mmHg 59%
    23:00 +20°C° 0 mm 3 mps 679 mmHg 62%

    Tomorrow, 3 April, Friday

    Time Temperature Precipitation Wind Pressure Humidity
    00:00 +20°C° 0 mm 3 mps 680 mmHg 60%
    01:00 +19°C° 0 mm 3 mps 680 mmHg 57%
    02:00 +18°C° 0 mm 3 mps 680 mmHg 54%
    03:00 +18°C° 0 mm 3 mps 680 mmHg 59%
    04:00 +17°C° 0 mm 2 mps 680 mmHg 64%
    05:00 +16°C° 0 mm 2 mps 680 mmHg 68%
    06:00 +17°C° 0 mm 3 mps 680 mmHg 67%
    07:00 +17°C° 0 mm 4 mps 681 mmHg 65%
    08:00 +17°C° 0 mm 5 mps 681 mmHg 63%
    09:00 +20°C° 0 mm 5 mps 681 mmHg 55%
    10:00 +22°C° 0 mm 5 mps 682 mmHg 46%
    11:00 +25°C° 0 mm 5 mps 682 mmHg 38%
    12:00 +26°C° 0 mm 4 mps 682 mmHg 36%
    13:00 +27°C° 0 mm 4 mps 681 mmHg 34%
    14:00 +29°C° 0 mm 4 mps 680 mmHg 31%
    15:00 +28°C° 0 mm 3 mps 680 mmHg 31%
    16:00 +28°C° 0 mm 3 mps 680 mmHg 31%
    17:00 +28°C° 0 mm 2 mps 679 mmHg 31%
    18:00 +26°C° 0 mm 2 mps 679 mmHg 37%
    19:00 +24°C° 0 mm 2 mps 679 mmHg 43%
    20:00 +23°C° 0 mm 2 mps 679 mmHg 49%
    21:00 +21°C° 0 mm 2 mps 679 mmHg 54%
    22:00 +20°C° 0 mm 2 mps 679 mmHg 59%
    23:00 +20°C° 0 mm 1 mps 679 mmHg 63%

    Day after tomorrow, 4 April, Saturday

    Time Temperature Precipitation Wind Pressure Humidity
    00:00 +20°C° 0 mm 1 mps 679 mmHg 62%
    01:00 +20°C° 0 mm 1 mps 679 mmHg 61%
    02:00 +20°C° 0 mm 1 mps 679 mmHg 60%
    03:00 +20°C° 0 mm 1 mps 679 mmHg 61%
    04:00 +18°C° 0 mm 0 mps 679 mmHg 62%
    05:00 +18°C° 0 mm 0 mps 679 mmHg 63%
    06:00 +20°C° 0 mm 1 mps 679 mmHg 62%
    07:00 +21°C° 0 mm 1 mps 680 mmHg 60%
    08:00 +21°C° 0 mm 1 mps 680 mmHg 59%
    09:00 +23°C° 0 mm 2 mps 680 mmHg 54%
    10:00 +24°C° 0 mm 3 mps 680 mmHg 50%
    11:00 +26°C° 0 mm 4 mps 680 mmHg 46%
    12:00 +26°C° 0 mm 3 mps 679 mmHg 44%
    13:00 +27°C° 0 mm 3 mps 679 mmHg 42%
    14:00 +27°C° 0 mm 3 mps 678 mmHg 40%
    15:00 +27°C° 0 mm 3 mps 678 mmHg 38%
    16:00 +28°C° 0 mm 2 mps 678 mmHg 36%
    17:00 +28°C° 0 mm 1 mps 678 mmHg 33%
    18:00 +26°C° 0 mm 1 mps 678 mmHg 40%
    19:00 +25°C° 0 mm 2 mps 678 mmHg 48%
    20:00 +23°C° 0 mm 2 mps 678 mmHg 55%
    21:00 +21°C° 0 mm 2 mps 678 mmHg 56%
    22:00 +21°C° 0 mm 2 mps 678 mmHg 58%
    23:00 +21°C° 0 mm 2 mps 678 mmHg 59%

    5 April, Sunday

    Time Temperature Precipitation Wind Pressure Humidity
    00:00 +21°C° 0 mm 1 mps 678 mmHg 60%
    01:00 +21°C° 0 mm 1 mps 677 mmHg 60%
    02:00 +21°C° 0 mm 1 mps 677 mmHg 60%
    03:00 +20°C° 0 mm 1 mps 677 mmHg 63%
    04:00 +18°C° 0 mm 0 mps 677 mmHg 66%
    05:00 +17°C° 0 mm 0 mps 677 mmHg 69%
    06:00 +20°C° 0 mm 1 mps 677 mmHg 65%
    07:00 +21°C° 0 mm 1 mps 678 mmHg 62%
    08:00 +22°C° 0 mm 1 mps 678 mmHg 58%
    09:00 +25°C° 0 mm 1 mps 679 mmHg 49%
    10:00 +28°C° 0 mm 1 mps 679 mmHg 39%
    11:00 +31°C° 0 mm 1 mps 680 mmHg 30%
    12:00 +31°C° 0 mm 1 mps 679 mmHg 27%
    13:00 +32°C° 0 mm 2 mps 678 mmHg 24%
    14:00 +34°C° 0 mm 2 mps 678 mmHg 21%
    15:00 +34°C° 0 mm 2 mps 677 mmHg 21%
    16:00 +32°C° 0 mm 2 mps 677 mmHg 20%
    17:00 +32°C° 0 mm 1 mps 676 mmHg 20%
    18:00 +31°C° 0 mm 1 mps 676 mmHg 22%
    19:00 +29°C° 0 mm 1 mps 677 mmHg 25%
    20:00 +27°C° 0 mm 1 mps 677 mmHg 27%
    21:00 +26°C° 0 mm 1 mps 676 mmHg 30%
    22:00 +25°C° 0 mm 1 mps 676 mmHg 32%
    23:00 +24°C° 0 mm 2 mps 676 mmHg 35%

    6 April, Monday

    Time Temperature Precipitation Wind Pressure Humidity
    00:00 +23°C° 0 mm 1 mps 676 mmHg 37%
    01:00 +22°C° 0 mm 1 mps 675 mmHg 38%
    02:00 +20°C° 0 mm 0 mps 675 mmHg 40%
    03:00 +20°C° 0 mm 0 mps 675 mmHg 41%
    04:00 +19°C° 0 mm 0 mps 675 mmHg 41%
    05:00 +19°C° 0 mm 0 mps 674 mmHg 42%
    06:00 +20°C° 0 mm 0 mps 675 mmHg 39%
    07:00 +23°C° 0 mm 1 mps 676 mmHg 37%
    08:00 +24°C° 0 mm 1 mps 676 mmHg 34%
    09:00 +27°C° 0 mm 2 mps 677 mmHg 30%
    10:00 +30°C° 0 mm 2 mps 677 mmHg 25%
    11:00 +32°C° 0 mm 2 mps 677 mmHg 21%
    12:00 +34°C° 0 mm 3 mps 677 mmHg 19%
    13:00 +35°C° 0 mm 3 mps 676 mmHg 17%
    14:00 +36°C° 0 mm 3 mps 676 mmHg 16%
    15:00 +36°C° 0 mm 4 mps 675 mmHg 16%
    16:00 +36°C° 0 mm 4 mps 675 mmHg 16%
    17:00 +35°C° 0 mm 5 mps 674 mmHg 17%
    18:00 +33°C° 0 mm 5 mps 674 mmHg 21%
    19:00 +30°C° 0 mm 4 mps 674 mmHg 24%
    20:00 +28°C° 0 mm 4 mps 674 mmHg 28%
    21:00 +27°C° 0 mm 4 mps 675 mmHg 30%
    22:00 +26°C° 0 mm 3 mps 675 mmHg 32%
    23:00 +26°C° 0 mm 3 mps 675 mmHg 33%

    7 April, Tuesday

    Time Temperature Precipitation Wind Pressure Humidity
    00:00 +25°C° 0 mm 4 mps 675 mmHg 30%
    01:00 +23°C° 0 mm 4 mps 675 mmHg 27%
    02:00 +23°C° 0 mm 4 mps 675 mmHg 23%
    03:00 +22°C° 0 mm 4 mps 675 mmHg 23%
    04:00 +21°C° 0 mm 3 mps 674 mmHg 23%
    05:00 +20°C° 0 mm 2 mps 674 mmHg 23%
    06:00 +20°C° 0 mm 2 mps 675 mmHg 22%
    07:00 +22°C° 0 mm 1 mps 676 mmHg 21%
    08:00 +23°C° 0 mm 1 mps 676 mmHg 19%
    09:00 +26°C° 0 mm 2 mps 677 mmHg 17%
    10:00 +29°C° 0 mm 2 mps 677 mmHg 14%
    11:00 +33°C° 0 mm 3 mps 678 mmHg 11%
    12:00 +34°C° 0 mm 4 mps 678 mmHg 11%
    13:00 +35°C° 0 mm 4 mps 677 mmHg 11%
    14:00 +36°C° 0 mm 5 mps 677 mmHg 11%
    15:00 +35°C° 0 mm 5 mps 677 mmHg 11%
    16:00 +34°C° 0 mm 5 mps 676 mmHg 11%
    17:00 +33°C° 0 mm 6 mps 676 mmHg 11%
    18:00 +30°C° 0 mm 5 mps 676 mmHg 13%
    19:00 +27°C° 0 mm 5 mps 676 mmHg 15%
    20:00 +25°C° 0 mm 5 mps 677 mmHg 17%
    21:00 +23°C° 0 mm 4 mps 677 mmHg 19%
    22:00 +22°C° 0 mm 4 mps 677 mmHg 21%
    23:00 +21°C° 0 mm 4 mps 677 mmHg 22%
    Show more